Weather in Vistino

Russia / Saint-Petersburg and Leningrad Oblast     59°46′25″N   28°28′20″E
temp.,
°C
wind,
m/s
gust,
m/s
humid.,
%
clouds,
%
prec.,
mm/h
press.,
hPa
HPBL,
m
7 march, sun
sun700:000w91397100 4.1 991771
03:00−3wnw71472100 5.5 991799
06:00−6wnw7146280 0.2 9901057
09:00−6wnw6126557 0.3 989895
12:00−5nw477288 0.0 991904
15:00−5wnw367355 0.0 992535
18:00−7nw25810 0.0 994148
21:00−6n5118117 0.0 997520
8 march, mon
mon800:00−7n6118698 0.0 1000698
03:00−10nne6118699 0.1 1003655
06:00−11n51089100 0.0 1006567
09:00−12n4890100 0.1 1010394
12:00−11n478379 0.0 1013433
15:00−9n477945 0.0 1014523
18:00−10n37780 0.0 1016433
21:00−12nne36870 0.0 1017168
9 march, tue
tue900:00−14nne22940 0.0 101854
03:00−14ene119414 0.0 101921
06:00−14ese1292100 0.0 101965
09:00−13ese2487100 0.0 1019220
12:00−11se4679100 0.0 1019410
15:00−9ese4781100 0.1 1020520
18:00−10e5982100 0.1 1019532
21:00−12e51079100 0.1 1021461
10 march, wed
wed1000:00−16ene5108741 0.0 1022294
03:00−17ene498721 0.0 1023256
06:00−17ene48890 0.0 1024228
09:00−17ene48810 0.0 1026224
12:00−12ene486851 0.0 1027356
15:00−9ene476451 0.0 1027484
18:00−10e47741 0.0 1026336
21:00−13e38861 0.0 1026191
11 march, thu
thu1100:00−14ese37860 0.0 1026181
03:00−14ese37830 0.0 1025167
06:00−15se38780 0.0 1023190
09:00−13se410730 0.0 1021328
12:00−9sse49807 0.0 1018497
15:00−6sse5108137 0.0 1015591
18:00−6sse5128799 0.0 1012508
21:00−4sse7158799 0.1 1007793